Regional Weather Roundup
Issued by NWS

Home | Current Version | Previous Version | Text Only | Print | Product List | Glossary Off
Versions: 1 2 3 4 5 6 7 8 9 10 11 12 13 14 15 16 17 18 19 20 21 22 23 24 25 26 27 28 29 30 31 32 33 34 35 36 37 38 39 40 41 42 43 44 45 46 47 48 49 50

000
ASUS43 KLMK 292310
RWRKY
KENTUCKY REGIONAL WEATHER ROUNDUP
NATIONAL WEATHER SERVICE LOUISVILLE KY
700 PM EDT WED JUL 29 2015

NOTE "FAIR" INDICATES FEW OR NO CLOUDS BELOW 12,000 FEET
WITH NO SIGNIFICANT WEATHER AND/OR OBSTRUCTIONS TO VISIBILITY.

KYZ001>023-026-027-061>063-070>075-300000-
WESTERN AND SOUTH CENTRAL KENTUCKY

CITY           SKY/WX    TMP DP  RH WIND       PRES   REMARKS
PADUCAH        PTSUNNY   79  76  90 E3        29.96F
HENDERSON      PTSUNNY   84  75  74 NW3       29.96R HX  92
OWENSBORO      PTSUNNY   82  78  88 W6        29.96R THUNDER HX  91
HOPKINSVILLE   SUNNY     91  77  63 W6        29.95F HX 105
BOWLING GREEN  MOSUNNY   93  76  57 NW5       29.95S HX 105
GLASGOW        SUNNY    N/A N/A N/A W3        29.96R
$$

KYZ024-025-028>034-038-045-046-053-300000-
NORTH CENTRAL KENTUCKY

CITY           SKY/WX    TMP DP  RH WIND       PRES   REMARKS
LOUISVILLE/SDF CLOUDY    80  73  79 NW9       29.93F
LOUISVILLE/LOU PTSUNNY   78  71  79 CALM      29.96R
FORT KNOX      CLOUDY    90  78  68 VRB3      29.93R THUNDER HX 103
$$

KYZ035>037-039>044-047>052-055>060-089>105-300000-
NORTHEAST KENTUCKY

CITY           SKY/WX    TMP DP  RH WIND       PRES   REMARKS
LEXINGTON      CLOUDY    82  74  76 E6        29.98S
COVINGTON      TSTM      78  72  81 N15G26    29.97R
FRANKFORT      PTSUNNY   83  76  79 SE6       29.96R HX  91
$$

KYZ054-064>069-076>088-106>120-300000-
SOUTHEAST KENTUCKY

CITY           SKY/WX    TMP DP  RH WIND       PRES   REMARKS
JACKSON        MOSUNNY   85  73  67 CALM      30.00R HX  91
LONDON         SUNNY     88  68  51 W3        30.00R HX  91
SOMERSET       CLOUDY    86  72  62 CALM      29.98S HX  92
MIDDLESBORO    SUNNY     88  73  62 NW5       29.99R HX  96
MONTICELLO     PTCLDY    91  79  68 CALM      30.01R HX 107
$$




USA.gov is the U.S. government's official web portal to all federal, state and local government web resources and services.